STARLINK-11306, 61254

Orbit data source: Space-Track

STARLINK-11306, 61254 is a payload satellite owned by SpaceX/Seattle (US) in LEO that was launched on Wed, 25 Sep 2024 UTC via an FALCON 9 launch vehicle from the Air Force Western Test Range (AFWTR). Payload-class satellites include a variety of spacecraft equipped with specific instruments for various scientific and technological missions. These include communications satellites like Starlink; space stations such as the ISS; scientific satellites like the Hubble; Earth observation satellites from companies like Planet Labs, Umbra, and HawkEye 360; GPS; miniature CubeSats for education and research; and military/defense satellites.

Loading next visibility...
Identifier
61254, 2024-175M
Orbit
LEO
Country
Flag of USUS
Related business
Manufacturer
SpaceX/Seattle
Mission
Operational Commercial Communications
Bus & Motor
STARLINK V2MD, Unknown motor
Mass
960 kg wet, ~910 kg dry
Launch date (UTC)
2024-09-25 (2 years ago)
Launch vehicle
FALCON 9
Launch site
Air Force Western Test Range (AFWTR)
Object type
Payload
Rocket body
Debris
Shape & HBR
Box + 2 Pan, 18.1 m
Radar Cross Section
36.964 m², Large (>1 m²)

Expand to show TLE details & history
Last TLE update: 7 hours ago

TLE from 7 hours ago
0 STARLINK-11306
1 61254U 24175M   26125.28556175  .00000518  00000-0  91292-5 0  9994
2 61254  53.1598 137.4020 0001061  70.3227 289.7905 15.69717821 93455
Epoch: 2026-05-05T06:51Z
TLE epoch observation values (Epoch: 2026-05-05T06:51:12.535Z)
Latitude
-0.00003°
Longitude
171.43715°
Altitude
360.377 km
Speed
7.694 km/s
True Right ascension
09h 09m 36s
True Declination
0° 00' 00"
Sunlit
Object was in daylight at epoch
Visualization orbit readout
Latitude
Unknown
Longitude
Unknown
Altitude
Unknown
Speed
Unknown
Apparent Right ascension
Unknown
Apparent Declination
Unknown
Sunlit
N/A
Visualization observer readout
Local Sidereal Time
21:19:22
Azimuth
Unknown
Elevation
Unknown
Doppler factor
Unknown
Orbital elements
Apogee altitude
360.68 km
Perigee altitude
359.25 km
Semi-major axis
6,738.102 km
Eccentricity
0.00011
Inclination
53.1598°
RAAN
137.402°
Arg. of periapsis
70.3227°
True anomaly
289.77906°
Mean anomaly
289.7905°
Eccentric anomaly
289.78478°
Mean motion
3.92407 °/min
Orbital period
91.74 mins
BSTAR
0.0000091292
Loading maneuver chart data...
Computing Atmospheric mass density...
Loading historical data...
Loading historical data...
Loading historical data...
Loading historical data...
Loading historical data...
Loading historical data...
Loading historical data...

Documentation

Showing up to 5 results
|